Content
SEND FEEDBACK

Daily
Averages
Monthly
Summary
United States of America

ALPINE MEADOWS, CALIFORNIA


Home > North America > United States > California
Elevation: 1900 meters     Latitude: 39 12N     Longitude: 120 14W

WEATHER
 
SELECT A DAY
Number of Records: 290,231;   Date Range: 1/1/95 - 12/16/14
 
SHARE

PRINT THIS DATA

[ ← Previous Day ]
WEATHER ALMANAC - 19 APRIL, 2014
[ Next Day → ]
[ °F ]   °C
Weather ElementAverageHighLow
Temperature4.3 °C17 °C (12:55 pm)-2 °C (11:35 pm)
Dewpoint-3.6 °C3 °C (8:55 am)-10 °C (9:35 pm)
Humidity66.7 %100 % (12:35 am)20 % (12:55 pm)
Barometer1020 hPa1023.7 hPa (11:35 pm)1017.3 hPa (2:35 am)
Wind Speed6.4 km/h29.6 km/h (2:50 pm)
Wind Gust38.9 km/h (12:55 pm)
Weather ElementAverage
Visibility9.5 km
Wind DirectionESE (100.2 °)

Weather ElementTotal
Precipitation---
Heating Degree Days10.8 (Base 18.3)
Averaged from 47 records on 19 April, 2014
WEATHER CONDITIONS BREAKOUT
WIND DIRECTION BREAKOUT
WEATHER BY HOUR - 19 APRIL, 2014
[ °F ]   °C
Local TimeTemperatureDewpointHumidityBarometerVisibilityWind DirectionWind SpeedGust SpeedPrecipitationEventsConditions
12:35 AM1 °C1 °C100 %1017.9 hPa1.9 kmCalmMist
12:55 AM2 °C2 °C100 %1017.9 hPa1.3 kmCalmMostly Cloudy
1:15 AM0 °C0 °C100 %1017.9 hPa0.8 kmCalmFogFog
1:35 AM1 °C1 °C100 %1017.6 hPa4.8 kmCalmScattered Clouds
1:55 AM0 °C0 °C100 %1017.6 hPa2.9 kmCalmMist
2:15 AM0 °C0 °C100 %1017.6 hPa1.3 kmCalmMostly Cloudy
2:35 AM0 °C0 °C100 %1017.3 hPa2.9 kmSE (140°)5.6 km/hScattered Clouds
2:55 AM-1 °C-1 °C100 %1017.6 hPa1.9 kmCalmMostly Cloudy
3:15 AM0 °C0 °C100 %1017.6 hPa0.8 kmCalmFogFog
3:35 AM0 °C0 °C100 %1017.6 hPa0.3 kmCalmFogFog
3:55 AM0 °C0 °C100 %1017.6 hPa6.4 kmCalmScattered Clouds
4:15 AM0 °C0 °C100 %1017.9 hPa0.8 kmCalmFogFog
4:35 AM-1 °C-1 °C100 %1017.9 hPa0.3 kmSE (140°)7.4 km/hFogLight Freezing Fog
4:55 AM-1 °C-1 °C100 %1017.9 hPa0.8 kmCalmFogLight Freezing Fog
5:15 AM0 °C0 °C100 %1017.9 hPa0.8 kmCalmFogLight Freezing Fog
5:35 AM-1 °C-1 °C100 %1017.9 hPa0.3 kmCalmFogLight Freezing Fog
5:55 AM0 °C0 °C100 %1018.3 hPa0.3 kmCalmFogLight Freezing Fog
6:15 AM-1 °C-1 °C100 %1018.3 hPa0.3 kmSSE (150°)9.3 km/hFogLight Freezing Fog
6:35 AM-1 °C-1 °C100 %1018.3 hPa0.3 kmCalmFogLight Freezing Fog
6:55 AM-1 °C-1 °C100 %1018.6 hPa0.3 kmCalmFogLight Freezing Fog
7:55 AM0 °C0 °C100 %1019.3 hPa0.3 kmCalmFogFog
8:55 AM3 °C3 °C100 %1019.3 hPa16.1 kmCalmPartly Cloudy
9:50 AM12 °C3 °C54 %1019.3 hPa16.1 kmSSW (200°)16.7 km/hPartly Cloudy
11:45 AM16 °C-4 °C25 %1019.6 hPa16.1 kmSW (230°)14.8 km/h33.3 km/hClear
12:55 PM17 °C-6 °C20 %1019.6 hPa16.1 kmSW (230°)24.1 km/h38.9 km/hPartly Cloudy
1:55 PM17 °C-2 °C27 %1019.6 hPa16.1 kmSSW (200°)22.2 km/h38.9 km/hPartly Cloudy
2:50 PM17 °C-3 °C26 %1019.6 hPa16.1 kmWSW (240°)29.6 km/h38.9 km/hPartly Cloudy
3:50 PM17 °C-6 °C20 %1020 hPa16.1 kmSW (230°)16.7 km/h37 km/hPartly Cloudy
5:45 PM15 °C-8 °C20 %1020.3 hPa16.1 kmWSW (240°)18.5 km/hClear
6:15 PM13 °C-8 °C23 %1020.7 hPa16.1 kmWSW (240°)18.5 km/hClear
6:35 PM12 °C-8 °C24 %1020.7 hPa16.1 kmWest (260°)18.5 km/hClear
6:55 PM12 °C-8 °C24 %1020.7 hPa16.1 kmWSW (240°)16.7 km/hClear
7:15 PM11 °C-8 °C26 %1020.7 hPa16.1 kmWSW (240°)14.8 km/hClear
7:35 PM9 °C-7 °C32 %1021 hPa16.1 kmSW (230°)11.1 km/hClear
7:55 PM8 °C-8 °C32 %1021.3 hPa16.1 kmSW (230°)9.3 km/hClear
8:15 PM7 °C-8 °C34 %1021.7 hPa16.1 kmCalmClear
8:35 PM6 °C-8 °C36 %1021.7 hPa16.1 kmSE (130°)9.3 km/hClear
8:55 PM4 °C-9 °C39 %1022 hPa16.1 kmSSE (160°)11.1 km/hClear
9:15 PM4 °C-8 °C42 %1022.4 hPa16.1 kmWSW (250°)5.6 km/hClear
9:35 PM3 °C-10 °C38 %1022.7 hPa16.1 kmCalmClear
9:55 PM3 °C-7 °C48 %1022.7 hPa16.1 kmCalmClear
10:15 PM0 °C-7 °C60 %1023 hPa16.1 kmEast (100°)5.6 km/hClear
10:35 PM1 °C-8 °C52 %1023.4 hPa16.1 kmSW (230°)7.4 km/hClear
10:55 PM0 °C-8 °C55 %1023.4 hPa16.1 kmCalmClear
11:15 PM0 °C-8 °C55 %1023.4 hPa16.1 kmSSE (160°)7.4 km/hClear
11:35 PM-2 °C-7 °C69 %1023.7 hPa16.1 kmWSW (240°)5.6 km/hClear
11:55 PM1 °C-7 °C56 %1023.7 hPa16.1 kmCalmClear
Hourly data recorded from KTRK, located 0 kilometers away from Alpine Meadows, California







STORIES FROM OUR PARTNERS